Regional Weather Roundup
Issued by NWS

Home | Current Version | Previous Version | Text Only | Print | Product List | Glossary Off
Versions: 1 2 3 4 5 6 7 8 9 10 11 12 13 14 15 16 17 18 19 20 21 22 23 24 25 26 27 28 29 30 31 32 33 34 35 36 37 38 39 40 41 42 43 44 45 46 47 48 49 50

000
ASUS45 KPSR 262110
RWRAZ

ARIZONA REGIONAL HOURLY WEATHER ROUNDUP
NATIONAL WEATHER SERVICE PHOENIX AZ
200 PM MST FRI DEC 26 2014

NOTE: FAIR INDICATES FEW OR NO CLOUDS BELOW 12,000 FEET WITH NO
SIGNIFICANT WEATHER AND/OR OBSTRUCTIONS TO VISIBILITY.

AZZ001>003-036-262200-
NORTHWEST ARIZONA

CITY           SKY/WX    TMP DP  RH WIND       PRES   REMARKS
BULLHEAD CITY  SUNNY     55  10  16 N16       30.07S
KINGMAN        SUNNY     44  11  26 N10       30.01F
$$

AZZ004>008-015-016-018-262200-
NORTH CENTRAL ARIZONA

CITY           SKY/WX    TMP DP  RH WIND       PRES   REMARKS
GRAND CANYON   PTSUNNY   28  12  51 NW9       29.89R WCI  19
PRESCOTT       MOSUNNY   39   9  29 N7        29.93F WCI  34
FLAGSTAFF      CLOUDY    28   8  43 W8        29.88R WCI  20
PAYSON         SUNNY     37  12  35 W10G17    29.94S WCI  30
PAGE           SUNNY     42   5  21 NW10      29.89S
$$

AZZ009>014-017-262200-
NORTHEAST ARIZONA

CITY           SKY/WX    TMP DP  RH WIND       PRES   REMARKS
WINSLOW        CLOUDY    38  14  37 N7        29.90F WCI  33
SAINT JOHNS    MOSUNNY   36  14  40 NW13G21   29.87S WCI  27
WINDOW ROCK    CLOUDY    26  14  60 SW14      29.85R WCI  14
SHOW LOW       MOSUNNY   32   5  32 SW18G24   29.89S WCI  20
$$

AZZ023-262200-
GREATER PHOENIX AREA

CITY           SKY/WX    TMP DP  RH WIND       PRES   REMARKS
PHOENIX        MOSUNNY   54  15  21 W7        29.99F
BUCKEYE          N/A     54  18  24 W7        30.02S
GLENDALE       MOSUNNY   54  19  26 S6        30.02F
LUKE AFB       SUNNY     54  18  24 S6        30.00F
DEER VALLEY    SUNNY     50  16  25 VRB6      29.99S
SCOTTSDALE     SUNNY     52  16  24 VRB3      30.00F
CHANDLER       MOSUNNY   54  18  24 SW9       30.00F
$$

AZZ027-028-262200-
SOUTHWEST MARICOPA COUNTY AND PINAL COUNTY

CITY           SKY/WX    TMP DP  RH WIND       PRES   REMARKS
CASA GRANDE    SUNNY     52  16  24 CALM      30.00S
GILA BEND      FAIR      55  17  22 NW5       30.03F
$$

AZZ503-504-507>509-262200-
SOUTHEAST ARIZONA

CITY           SKY/WX    TMP DP  RH WIND       PRES   REMARKS
TUCSON         SUNNY     51  16  24 W7        29.99F
DAVIS-MONTHAN  SUNNY     50  15  25 VRB2      29.96
RYAN FIELD       N/A     54  19  26 N7        30.00F
NOGALES        SUNNY     51  16  24 W12G23    29.94F
SIERRA VISTA   MOSUNNY   49  19  30 W18G25    29.92F
DOUGLAS        MOSUNNY   48  26  42 W14       29.92F
SAFFORD        SUNNY     49  11  21 W10       29.93F
$$

AZZ020-021-025-026-031-262200-
SOUTHWEST ARIZONA

CITY           SKY/WX    TMP DP  RH WIND       PRES   REMARKS
YUMA           SUNNY    N/A N/A N/A N14       30.05F
$$

CAZ031-033-041-043-047-048-061-262200-
SOUTHERN CALIFORNIA

CITY           SKY/WX    TMP DP  RH WIND       PRES   REMARKS
DOWNTOWN L.A.  SUNNY     62  15  16 CALM      30.04F
L.A. AIRPORT   SUNNY     60  15  17 SE5       30.05F
SAN DIEGO      SUNNY     63  15  15 CALM      30.04F
BURBANK        SUNNY     61  14  16 S6        30.03F
ONTARIO        SUNNY     59  10  14 NE14G29   30.03F
RIVERSIDE      SUNNY     59  12  15 NE13G21   30.04F
PALM SPRINGS   SUNNY     61   7  11 VRB3      30.08F
EL CENTRO NAS  MOSUNNY   62  16  16 N14       30.07F
IMPERIAL       SUNNY     60  17  18 N12       30.06F
BLYTHE         SUNNY     59  14  17 NW16G22   30.06F
NEEDLES        SUNNY     57  11  16 NE17      30.05F
$$

NVZ020-UTZ003-262200-
SOUTHERN NEVADA-UTAH

CITY           SKY/WX    TMP DP  RH WIND       PRES   REMARKS
LAS VEGAS      MOSUNNY   49   8  19 NW12G20   30.02F
SALT LAKE CITY PTSUNNY   29  15  56 N16       30.04R WCI  17
$$

NMZ009-TXZ055-262200-
NEW MEXICO-WEST TEXAS

CITY           SKY/WX    TMP DP  RH WIND       PRES   REMARKS
ALBUQUERQUE    PTSUNNY   34   9  35 W21G32    29.86S WCI  22
EL PASO        PTSUNNY   40  35  83 S6        29.91F
$$


........................KEY........................
SKY/WX - SKY CONDITION/WEATHER
TMP    - TEMPERATURE IN FAHRENHEIT
DP     - DEW POINT IN FAHRENHEIT
RH     - RELATIVE HUMIDITY IN PERCENT
WIND   - DIRECTION AND SPEED IN MILES PER HOUR (MPH)
VRB    - VARIABLE WIND DIRECTION
PRES   - MEAN SEA LEVEL PRESSURE IN INCHES OF MERCURY
         F - FALLING PRESSURE   R - RISING PRESSURE
         S - STEADY PRESSURE
VSB    - VISIBILITY IN MILES
HX     - HEAT INDEX IN FAHRENHEIT
WCI    - WIND CHILL INDEX IN FAHRENHEIT
TC     - TEMPERATURE IN CELSIUS WHICH IS ALSO KNOWN AS
         TEMPERATURE IN CENTIGRADE
AFB    - AIR FORCE BASE
         LUKE AFB IS LUKE AIR FORCE BASE
         DAVIS-MONTHAN IS DAVIS-MONTHAN AIR FORCE BASE
NAS    - NAVAL AIR STATION
         EL CENTRO NAS IS EL CENTRO NAVAL AIR STATION
N/A    - NOT AVAILABLE


USA.gov is the U.S. government's official web portal to all federal, state and local government web resources and services.